TimeCST,TemperatureF,Dew PointF,Humidity,Sea Level PressureIn,VisibilityMPH,Wind Direction,Wind SpeedMPH,Gust SpeedMPH,PrecipitationIn,Events,Conditions,WindDirDegrees,DateUTC
12:11 AM,30.2,30.2,100,29.84,10.0,South,4.6,-,N/A,,Overcast,190,2012-02-14 06:11:00
12:14 AM,30.2,30.2,100,29.85,10.0,South,5.8,-,N/A,,Overcast,190,2012-02-14 06:14:00
12:24 AM,30.2,30.2,100,29.84,10.0,South,5.8,-,N/A,,Overcast,180,2012-02-14 06:24:00
12:55 AM,31.1,30.9,99,29.84,10.0,Variable,4.6,-,0.00,,Overcast,0,2012-02-14 06:55:00
12:56 AM,32.0,30.2,93,29.84,10.0,Variable,4.6,-,N/A,,Overcast,0,2012-02-14 06:56:00
1:05 AM,32.0,30.2,93,29.84,10.0,SSW,4.6,-,N/A,,Overcast,200,2012-02-14 07:05:00
1:06 AM,32.0,30.2,93,29.84,10.0,South,4.6,-,N/A,,Overcast,190,2012-02-14 07:06:00
1:18 AM,32.0,30.2,93,29.84,10.0,South,5.8,-,N/A,,Overcast,190,2012-02-14 07:18:00
1:23 AM,32.0,30.2,93,29.84,10.0,Variable,5.8,-,N/A,,Overcast,0,2012-02-14 07:23:00
1:55 AM,31.5,31.3,99,29.84,10.0,Variable,4.6,-,0.00,,Overcast,0,2012-02-14 07:55:00
1:57 AM,32.0,32.0,100,29.84,8.0,South,3.5,-,N/A,Snow,Light Snow,190,2012-02-14 07:57:00
2:10 AM,32.0,32.0,100,29.84,10.0,SSW,4.6,-,N/A,Snow,Light Snow,200,2012-02-14 08:10:00
2:22 AM,32.0,32.0,100,29.85,9.0,Variable,5.8,-,N/A,,Light Freezing Drizzle,0,2012-02-14 08:22:00
2:42 AM,32.0,32.0,100,29.84,10.0,SSW,3.5,-,N/A,,Light Freezing Drizzle,210,2012-02-14 08:42:00
2:44 AM,32.0,32.0,100,29.84,10.0,SSW,4.6,-,N/A,,Overcast,200,2012-02-14 08:44:00
2:55 AM,31.6,31.5,99,29.84,10.0,South,4.6,-,0.00,,Overcast,190,2012-02-14 08:55:00
2:59 AM,32.0,32.0,100,29.84,10.0,Variable,3.5,-,N/A,,Overcast,0,2012-02-14 08:59:00
3:01 AM,32.0,32.0,100,29.84,10.0,Variable,3.5,-,N/A,,Overcast,0,2012-02-14 09:01:00
3:02 AM,32.0,32.0,100,29.85,10.0,Variable,4.6,-,N/A,,Overcast,0,2012-02-14 09:02:00
3:06 AM,32.0,32.0,100,29.85,10.0,SW,4.6,-,N/A,,Overcast,220,2012-02-14 09:06:00
3:16 AM,32.0,32.0,100,29.85,10.0,SSW,4.6,-,N/A,,Overcast,210,2012-02-14 09:16:00
3:45 AM,32.0,32.0,100,29.85,10.0,SW,4.6,-,N/A,,Overcast,220,2012-02-14 09:45:00
3:48 AM,32.0,32.0,100,29.85,10.0,Variable,3.5,-,N/A,,Overcast,0,2012-02-14 09:48:00
3:55 AM,32.0,31.8,99,29.85,9.0,SW,4.6,-,0.00,,Overcast,220,2012-02-14 09:55:00
4:15 AM,32.0,32.0,100,29.86,10.0,SW,5.8,-,N/A,,Overcast,220,2012-02-14 10:15:00
4:16 AM,32.0,32.0,100,29.86,10.0,SW,4.6,-,N/A,,Overcast,230,2012-02-14 10:16:00
4:24 AM,32.0,32.0,100,29.86,10.0,Variable,4.6,-,N/A,,Overcast,0,2012-02-14 10:24:00
4:50 AM,32.0,32.0,100,29.87,10.0,WSW,4.6,-,N/A,,Overcast,240,2012-02-14 10:50:00
4:52 AM,32.0,32.0,100,29.87,10.0,WSW,4.6,-,N/A,,Overcast,240,2012-02-14 10:52:00
4:55 AM,32.5,32.4,99,29.87,10.0,WSW,4.6,-,N/A,,Overcast,240,2012-02-14 10:55:00
5:20 AM,32.0,32.0,100,29.88,10.0,WSW,4.6,-,N/A,,Overcast,240,2012-02-14 11:20:00
5:55 AM,32.7,32.5,99,29.95,9.0,West,3.5,-,N/A,,Overcast,260,2012-02-14 11:55:00
6:55 AM,32.9,32.9,100,29.91,2.0,West,5.8,-,N/A,,Overcast,260,2012-02-14 12:55:00
7:55 AM,33.4,33.4,100,29.94,3.0,West,4.6,-,N/A,,Overcast,270,2012-02-14 13:55:00
8:47 AM,33.8,33.8,100,29.94,6.0,West,4.6,-,N/A,,Overcast,270,2012-02-14 14:47:00
8:55 AM,34.5,34.3,99,29.95,7.0,West,4.6,-,N/A,,Overcast,270,2012-02-14 14:55:00
9:07 AM,35.6,33.8,93,29.96,10.0,West,5.8,-,N/A,,Overcast,270,2012-02-14 15:07:00
9:14 AM,35.6,33.8,93,29.96,10.0,West,5.8,-,N/A,,Overcast,280,2012-02-14 15:14:00
9:55 AM,34.9,32.0,89,29.96,10.0,West,5.8,-,N/A,,Overcast,260,2012-02-14 15:55:00
10:55 AM,35.6,31.6,85,29.98,10.0,SW,4.6,-,N/A,,Overcast,230,2012-02-14 16:55:00
11:55 AM,36.9,30.9,79,29.97,10.0,Variable,3.5,-,N/A,,Overcast,0,2012-02-14 17:55:00
12:39 PM,41.0,32.0,70,29.96,10.0,Variable,3.5,-,N/A,,Scattered Clouds,0,2012-02-14 18:39:00
12:42 PM,41.0,32.0,70,29.96,10.0,Variable,4.6,-,N/A,,Mostly Cloudy,0,2012-02-14 18:42:00
12:55 PM,40.1,31.8,72,29.96,10.0,SW,4.6,-,N/A,,Mostly Cloudy,230,2012-02-14 18:55:00
1:33 PM,41.0,32.0,70,29.96,10.0,Variable,5.8,-,N/A,,Scattered Clouds,0,2012-02-14 19:33:00
1:55 PM,44.6,32.9,64,30.26,10.0,WSW,5.8,-,N/A,,Overcast,250,2012-02-14 19:55:00
2:55 PM,43.0,32.5,67,29.96,10.0,South,5.8,-,N/A,,Clear,180,2012-02-14 20:55:00
3:55 PM,44.6,32.5,63,29.96,10.0,South,4.6,-,N/A,,Clear,170,2012-02-14 21:55:00
4:55 PM,43.9,33.4,67,29.95,10.0,SSE,8.1,-,N/A,,Clear,150,2012-02-14 22:55:00
5:55 PM,39.7,31.8,73,29.98,10.0,South,6.9,-,N/A,,Clear,170,2012-02-14 23:55:00
6:55 PM,38.8,32.2,77,29.98,10.0,SSE,6.9,-,N/A,,Overcast,160,2012-02-15 00:55:00
7:55 PM,38.3,33.1,81,29.98,10.0,SSE,8.1,-,N/A,,Overcast,160,2012-02-15 01:55:00
8:55 PM,37.4,33.4,86,29.98,10.0,SSE,8.1,-,N/A,,Overcast,150,2012-02-15 02:55:00
9:55 PM,37.0,33.6,87,29.99,10.0,SSE,9.2,-,N/A,,Overcast,160,2012-02-15 03:55:00
10:55 PM,37.0,33.8,88,29.98,10.0,SSE,9.2,-,N/A,,Overcast,160,2012-02-15 04:55:00
11:55 PM,36.7,34.0,90,29.96,10.0,SE,12.7,-,N/A,,Mostly Cloudy,140,2012-02-15 05:55:00